User: anonymous   Login
Location: Unspecified
(0.0000°N, 0.0000°E)
Time: 09:31:00
(UTC+01:00)
Language:

Meteor PRIRODA - Orbit

View from above orbital plane
View from above orbital plane
View from above satellite
View from above satellite

Ground track
Ground track

The orbit data is extracted from the following two-line orbital elements,

1 12585U 81065A   14299.00180678  .00007104  00000-0  38133-3 0  9360
2 12585 097.3297 285.6073 0017337 164.2367 260.6553 15.15104113815790
Epoch (UTC): 26 October 2014 00:02:36
Eccentricity: 0.0017337
inclination: 97.3297°
perigee height: 509 km
apogee height: 532 km
right ascension of ascending node: 285.6073°
argument of perigee: 164.2367°
revolutions per day: 15.15104113
mean anomaly at epoch: 260.6553°
orbit number at epoch: 81579

The dashed part of the orbit path shows where the satellite is in the earth's shadow,  

DLR